Fresno, CA

8:19 AM PDT on October 19, 2017 (GMT -0700)
Fresno Yosemite International

Weather History for KFAT - March, 2013

Change the Weather History Date:

Thursday, March 7, 2013

  Actual Average Record
Temperature  
Mean Temperature 55 °F 56 °F  
Max Temperature 61 °F 66 °F 84 °F (1899)
Min Temperature 49 °F 45 °F 30 °F (1956)
Degree Days  
Heating Degree Days 10    
Month to date heating degree days 37  
Since 1 July heating degree days 1629  
Cooling Degree Days 0    
Month to date cooling degree days 0  
Year to date cooling degree days 0  
Growing Degree Days 4 (Base 50)    
Moisture  
Dew Point 43 °F    
Average Humidity 63    
Maximum Humidity 83    
Minimum Humidity 42    
Precipitation  
Precipitation 0.21 in 0.07 in 1.35 in (1918)
Month to date precipitation 0.21 0.50  
Year to date precipitation 1.68 4.72  
Since 1 July precipitation 5.07  
Snow  
Snow 0.00 in - - ()
Month to date snowfall 0.0  
Since 1 July snowfall 0.0  
Snow Depth 0.00 in    
Sea Level Pressure  
Sea Level Pressure 29.92 in    
Wind  
Wind Speed 5 mph (ENE)    
Max Wind Speed 14 mph    
Max Gust Speed 20 mph    
Visibility 9 miles    
Events Rain    
T = Trace of Precipitation, MM = Missing Value Source: NWS Daily Summary

Daily Weather History Graph

Daily Weather History Graph

Search for Another Location

Airport or City:

Trip Planner

Search our weather history database for the weather conditions in past years. The results will help you decide how hot, cold, wet, or windy it might be!

Date:

Astronomy

Mar. 07, 2013 Rise Set
Actual Time 6:20 AM PST 5:59 PM PST
Civil Twilight 5:54 AM PST 6:25 PM PST
Nautical Twilight 5:25 AM PST 6:55 PM PST
Astronomical Twilight 4:54 AM PST 7:25 PM PST
Moon 3:19 AM PST (3/7) 1:57 PM PST (3/7)
Length of Visible Light 12h 30m
Length of Day
11h 38m
Waning Crescent, 19% of the Moon is Illuminated
Mar 7
Waning Crescent
Mar 11
New
Mar 19
First Quarter
Mar 27
Full
Apr 2
Last Quarter

Hourly Weather History & Observations

Time (PST) Temp. Dew Point Humidity Pressure Visibility Wind Dir Wind Speed Gust Speed Precip Events Conditions
12:53 AM 50.0 °F 41.0 °F 71% 29.99 in 10.0 mi WNW 5.8 mph - N/A   Mostly Cloudy
1:53 AM 51.1 °F 41.0 °F 68% 29.98 in 10.0 mi NW 4.6 mph - N/A   Overcast
2:53 AM 51.1 °F 42.1 °F 71% 29.97 in 10.0 mi WNW 3.5 mph - N/A   Overcast
3:53 AM 51.1 °F 42.1 °F 71% 29.97 in 10.0 mi Calm Calm - N/A   Overcast
4:53 AM 51.1 °F 42.1 °F 71% 29.96 in 10.0 mi Calm Calm - 0.00 in   Overcast
5:53 AM 48.9 °F 43.0 °F 80% 29.97 in 10.0 mi SE 3.5 mph - N/A   Overcast
6:53 AM 48.9 °F 41.0 °F 74% 29.98 in 10.0 mi Calm Calm - 0.00 in   Overcast
7:53 AM 50.0 °F 42.1 °F 74% 29.99 in 10.0 mi Calm Calm - 0.00 in Rain Light Rain
8:53 AM 51.1 °F 44.1 °F 77% 29.98 in 10.0 mi ENE 4.6 mph - 0.01 in   Overcast
9:53 AM 52.0 °F 44.1 °F 74% 29.98 in 10.0 mi ESE 5.8 mph - 0.00 in   Overcast
10:53 AM 55.9 °F 44.1 °F 64% 29.97 in 10.0 mi ESE 8.1 mph - N/A   Overcast
11:53 AM 59.0 °F 39.9 °F 49% 29.96 in 10.0 mi ESE 9.2 mph - N/A   Overcast
12:53 PM 59.0 °F 39.0 °F 48% 29.93 in 10.0 mi ESE 9.2 mph - N/A   Overcast
1:53 PM 61.0 °F 37.9 °F 42% 29.90 in 10.0 mi East 4.6 mph - N/A   Overcast
2:53 PM 61.0 °F 37.9 °F 42% 29.89 in 10.0 mi Calm Calm - N/A   Overcast
3:53 PM 61.0 °F 37.9 °F 42% 29.87 in 10.0 mi ENE 6.9 mph - N/A   Overcast
4:53 PM 60.1 °F 37.9 °F 44% 29.86 in 10.0 mi East 5.8 mph - 0.00 in   Overcast
5:53 PM 53.1 °F 46.0 °F 77% 29.87 in 5.0 mi West 10.4 mph - 0.02 in Rain Light Rain
6:53 PM 54.0 °F 46.0 °F 75% 29.87 in 10.0 mi Calm Calm - 0.01 in   Overcast
7:53 PM 53.1 °F 46.0 °F 77% 29.87 in 10.0 mi WNW 3.5 mph - 0.00 in   Overcast
8:53 PM 53.1 °F 46.0 °F 77% 29.87 in 5.0 mi ESE 4.6 mph - 0.04 in Rain Light Rain
9:53 PM 52.0 °F 46.9 °F 83% 29.87 in 5.0 mi ENE 5.8 mph - 0.07 in Rain Rain
10:53 PM 51.1 °F 46.0 °F 83% 29.86 in 10.0 mi NNE 5.8 mph - 0.05 in Rain Light Rain
11:53 PM 50.0 °F 45.0 °F 83% 29.84 in 10.0 mi NNW 5.8 mph - 0.01 in   Overcast